This is the latest recevied weather packets stored in our database for station/object KX4O-13. If no packets are shown the sender has not sent any weather packets the latest 10 day(s).
| Time | Temp. | Humidity | Pressure | Rain* | Wind** | Luminosity | Snow |
|---|---|---|---|---|---|---|---|
| 1777923654 | 24.44° C | 34% | 1010.1 hPa | 0 mm | - | 733 W/m² | - |
| 1777923354 | 25° C | 34% | 1010.1 hPa | 0 mm | - | 737 W/m² | - |
| 1777923056 | 24.44° C | 33% | 1010.2 hPa | 0 mm | - | 744 W/m² | - |
| 1777922754 | 24.44° C | 33% | 1010.4 hPa | 0 mm | - | 758 W/m² | - |
| 1777922454 | 24.44° C | 34% | 1010.5 hPa | 0 mm | - | 761 W/m² | - |
| 1777922154 | 25° C | 32% | 1010.4 hPa | 0 mm | - | 772 W/m² | - |
| 1777921856 | 25° C | 36% | 1010.6 hPa | 0 mm | - | 779 W/m² | - |
| 1777921554 | 24.44° C | 35% | 1010.5 hPa | 0 mm | - | 788 W/m² | - |
| 1777921254 | 24.44° C | 33% | 1010.8 hPa | 0 mm | - | 795 W/m² | - |
| 1777920954 | 24.44° C | 34% | 1010.8 hPa | 0 mm | - | 800 W/m² | - |
| 1777920654 | 24.44° C | 35% | 1010.9 hPa | 0 mm | - | 802 W/m² | - |
| 1777920354 | 23.89° C | 33% | 1011 hPa | 0 mm | - | 807 W/m² | - |
| 1777920054 | 24.44° C | 36% | 1011 hPa | 0 mm | - | 800 W/m² | - |
| 1777919754 | 23.89° C | 37% | 1011.1 hPa | 0 mm | - | 837 W/m² | - |
| 1777919456 | 23.89° C | 32% | 1011.2 hPa | 0 mm | - | 835 W/m² | - |
| 1777919154 | 23.89° C | 35% | 1011.3 hPa | 0 mm | - | 833 W/m² | - |
| 1777918854 | 23.89° C | 37% | 1011.3 hPa | 0 mm | - | 835 W/m² | - |
| 1777918556 | 23.89° C | 34% | 1011.4 hPa | 0 mm | - | 861 W/m² | - |
| 1777918254 | 23.89° C | 36% | 1011.5 hPa | 0 mm | - | 860 W/m² | - |
| 1777917954 | 23.89° C | 35% | 1011.7 hPa | 0 mm | - | 851 W/m² | - |
| 1777917654 | 23.33° C | 35% | 1011.7 hPa | 0 mm | - | 854 W/m² | - |
| 1777917354 | 23.33° C | 35% | 1011.9 hPa | 0 mm | - | 870 W/m² | - |
| 1777917056 | 23.33° C | 35% | 1011.9 hPa | 0 mm | - | 853 W/m² | - |
| 1777916754 | 23.33° C | 36% | 1012 hPa | 0 mm | - | 870 W/m² | - |
| 1777916454 | 23.33° C | 36% | 1011.8 hPa | 0 mm | - | 870 W/m² | - |
* Rain latest hour (hover to see other rain measurements)
** Current wind speed in m/s (hover to see current wind gust speed)